[[{"header":{"parameterUnit":"m.s-1","parameterCategory":1,"la1":30.2991,"la2":30.254,"lo1":-89.0895,"lo2":-89.0444,"dy":0.0017,"dx":0.0017,"nx":28,"ny":28,"refTime":"2023-03-27T15:00:00:Z","depth":0,"parameterNumber":2,"parameterNumberName":"U-component_of_WINDS"},"data":[0,0,0,0,0,0,0,0,0,0,0,0,0,0,0,0,0,0,0,0,0,0,0,0,0,0,0,0,0,0,0,0,0,0,0,0,0,0,0,0,0,0,0,0,0,0,0,0,0,0,0,0,0,0,0,0,0,0,-3.3435,-3.3436,0,-3.3521,-3.3522,-3.3523,-3.3435,-3.3432,-3.3428,-3.3425,-3.3515,-3.3521,-3.3526,0,0,0,0,0,0,0,0,0,0,0,0,0,-3.3195,-3.32,-3.3435,-3.3436,-3.3437,-3.3521,-3.3522,-3.3523,-3.3436,-3.3431,-3.3427,-3.3423,-3.3514,-3.352,-3.3527,0,0,0,0,0,0,0,0,0,0,0,0,0,-3.3292,-3.3201,-3.3434,-3.3403,-3.3401,-3.3521,-3.3522,-3.3524,-3.3437,-3.3431,-3.3426,-3.3421,-3.3511,-3.352,-3.3528,-3.3683,0,0,-3.3554,-3.3557,0,0,0,0,0,0,0,0,-3.3287,-3.3301,-3.3407,-3.3406,-3.3404,-3.3462,-3.347,-3.3577,-3.3438,-3.3423,-3.3425,-3.3419,-3.3502,-3.3511,-3.3538,-3.3687,-3.3691,-3.3554,-3.3559,-3.3563,-3.3565,0,0,0,0,0,0,0,-3.328,-3.3297,-3.3469,-3.3408,-3.3407,-3.3385,-3.3393,-3.349,-3.3491,-3.3424,-3.3418,-3.3429,-3.35,-3.3531,-3.354,-3.3692,-3.3554,-3.3562,-3.3567,-3.357,-3.3972,-3.3978,0,0,0,0,0,0,-3.3276,-3.3292,-3.3466,-3.3471,-3.3331,-3.3394,-3.3403,-3.3448,-3.3489,-3.349,-3.3434,-3.3425,-3.3519,-3.353,-3.3543,-3.3728,-3.3563,-3.3571,-3.3576,-3.3967,-3.3974,-3.398,0,0,0,0,0,0,-3.3272,-3.3293,-3.3463,-3.338,-3.34,-3.3403,-3.3455,-3.3453,-3.3483,-3.3496,-3.3496,-3.3465,-3.3515,-3.3531,-3.3649,-3.3729,-3.3575,-3.3582,-3.396,-3.3969,-3.3977,-3.4098,0,0,0,0,0,0,-3.3265,-3.3292,-3.3351,-3.3382,-3.3405,-3.3567,-3.346,-3.3458,-3.3498,-3.3487,-3.3525,-3.3527,-3.3512,-3.3637,-3.3657,-3.3738,-3.3589,-3.3953,-3.3964,-3.3974,-3.4087,-3.411,-3.4129,0,0,0,0,0,-3.3257,-3.3382,-3.3354,-3.3376,-3.3478,-3.3572,-3.3585,-3.3565,-3.3505,-3.3564,-3.3572,-3.3526,-3.3717,-3.3649,-3.3672,-3.3757,-3.3948,-3.3961,-3.3973,-3.4078,-3.4105,-3.4129,0,0,0,0,0,0,-3.3362,-3.3386,-3.3355,-3.3494,-3.3532,-3.3557,-3.3632,-3.3595,-3.3652,-3.364,-3.3613,-3.3622,-3.3747,-3.3763,-3.3688,-3.3909,-3.3822,-3.384,-3.3894,-3.3921,-3.3941,-3.3936,-3.3596,0,0,0,0,0,-3.3401,-3.3474,-3.3491,-3.3612,-3.3632,-3.3629,-3.3669,-3.365,-3.3689,-3.3704,-3.3721,-3.3761,-3.3829,-3.3875,-3.3939,-3.4088,-3.4095,-3.4157,-3.4178,-3.4195,-3.4212,-3.4292,-3.432,-3.4021,-3.4021,-3.4021,0,0,-3.3483,-3.3505,-3.3553,-3.3634,-3.3661,-3.3738,-3.3643,-3.3729,-3.3787,-3.3718,-3.383,-3.3843,-3.3885,-3.4019,-3.4079,-3.4037,-3.4296,-3.4212,-3.4225,-3.4233,-3.4308,-3.4336,-3.4361,-3.403,-3.4028,-3.4027,0,0,-3.3672,-3.3696,-3.3799,-3.3828,-3.3869,-3.3865,-3.389,-3.3921,-3.3927,-3.4039,-3.3989,-3.4056,-3.4175,-3.4207,-3.4239,-3.4438,-3.4398,-3.446,-3.4571,-3.4649,-3.4673,-3.4694,-3.4766,-3.4792,-3.4476,-3.4476,-3.4476,0,-3.3769,-3.3883,-3.3857,-3.3947,-3.3984,-3.3923,-3.4028,-3.4057,-3.4118,-3.4145,-3.4095,-3.4243,-3.4267,-3.4408,-3.4456,-3.4483,-3.4511,-3.4457,-3.4671,-3.4692,-3.4711,-3.478,-3.4807,-3.4483,-3.4482,-3.4482,-3.4481,0,-3.4001,-3.4081,-3.4159,-3.4219,-3.4264,-3.4361,-3.435,-3.4399,-3.4375,-3.4377,-3.4492,-3.4518,-3.4586,-3.4617,-3.4595,-3.4755,-3.4727,-3.4675,-3.4589,-3.4747,-3.4812,-3.4838,-3.4494,-3.4491,-3.4489,-3.4487,0,0,-3.4262,-3.4304,-3.4333,-3.4359,-3.4399,-3.4461,-3.4554,-3.462,-3.4663,-3.4706,-3.4785,-3.4886,-3.4837,-3.4874,-3.4854,-3.4923,-3.508,-3.4862,-3.4863,-3.4903,-3.5259,-3.5299,-3.533,-3.5052,-3.5057,-3.5061,-3.5255,0,-3.4454,-3.4616,-3.4594,-3.475,-3.4824,-3.4766,-3.4847,-3.4881,-3.4884,-3.4947,-3.4951,-3.5024,-3.4954,-3.4975,-3.504,-3.5048,-3.5152,-3.5033,-3.5126,-3.513,-3.512,-3.5363,-3.5407,-3.5589,-3.528,-3.5284,-3.5287,0,-3.47,-3.4751,-3.4914,-3.4942,-3.4972,-3.5046,-3.5104,-3.5165,-3.5201,-3.5199,-3.5238,-3.5207,-3.53,-3.521,-3.5339,-3.5259,-3.5295,-3.5304,-3.5311,-3.5321,-3.522,-3.5382,-3.5647,-3.5675,-3.5326,-3.5323,-3.532,0,-3.4876,-3.4985,-3.5097,-3.5121,-3.5156,-3.5209,-3.5226,-3.5257,-3.5298,-3.5348,-3.5375,-3.5435,-3.547,-3.5517,-3.5503,-3.5438,-3.5636,-3.5544,-3.5637,-3.5638,-3.5684,-3.5682,-3.5961,-3.5704,-3.5704,-3.5703,-3.5702,0,-3.5093,-3.5196,-3.5176,-3.5246,-3.5359,-3.5332,-3.5444,-3.5454,-3.5482,-3.5553,-3.5505,-3.5572,-3.5548,-3.5613,-3.5602,-3.5711,-3.5726,-3.5728,-3.5724,-3.5733,-3.5734,-3.5759,-3.5747,-3.571,-3.5709,-3.5707,-3.5706,0,-3.5311,-3.5301,-3.542,-3.5442,-3.545,-3.5533,-3.5552,-3.5617,-3.5615,-3.5705,-3.5724,-3.5723,-3.5797,-3.5786,-3.5869,-3.5861,-3.5998,-3.5978,-3.5986,-3.5982,-3.6077,-3.6069,-3.6384,-3.6425,-3.614,-3.6142,-3.6145,0,-3.5451,-3.5529,-3.5559,-3.5603,-3.5623,-3.5694,-3.5734,-3.571,-3.5755,-3.5801,-3.5861,-3.593,-3.5985,-3.6107,-3.6113,-3.6176,-3.6158,-3.6264,-3.6168,-3.6175,-3.6162,-3.6159,-3.6167,-3.6285,-3.6288,-3.629,-3.6292,0,-3.5703,-3.5694,-3.5754,-3.5813,-3.5863,-3.5908,-3.5949,-3.5987,-3.5966,-3.6018,-3.6093,-3.6136,-3.622,-3.629,-3.6349,-3.6366,-3.6327,-3.6322,-3.6347,-3.6359,-3.6362,-3.6363,-3.6041,-3.6316,-3.6314,-3.6312,-3.6311,-3.631,-3.5887,-3.5953,-3.5985,-3.6054,-3.6081,-3.612,-3.6182,-3.6187,-3.6249,-3.6316,-3.6297,-3.6382,-3.6415,-3.649,-3.6514,-3.658,-3.6541,-3.6578,-3.6587,-3.6597,-3.661,-3.6349,-3.6591,-3.659,-3.6589,-3.6589,-3.6588,0,-3.6138,-3.6155,-3.6218,-3.6276,-3.633,-3.6285,-3.6327,-3.6376,-3.6451,-3.6485,-3.654,-3.6626,-3.6693,-3.6704,-3.6768,-3.6819,-3.6802,-3.6837,-3.6834,-3.6839,-3.664,-3.6612,-3.6849,-3.6849,-3.6849,-3.6849,-3.6849,-3.6849,-3.6275,-3.6385,-3.6379,-3.6502,-3.6517,-3.66,-3.6628,-3.6664,-3.6691,-3.6789,-3.6844,-3.685,-3.6875,-3.694,-3.6999,-3.7001,-3.7027,-3.7069,-3.7064,-3.6879,-3.6853,-3.6828,-3.6802,-3.7075,-3.7075,-3.7257,-3.7259,-3.726]},{"header":{"parameterUnit":"m.s-1","parameterCategory":1,"la1":30.2991,"la2":30.254,"lo1":-89.0895,"lo2":-89.0444,"dy":0.0017,"dx":0.0017,"nx":28,"ny":28,"refTime":"2023-03-27T15:00:00:Z","depth":0,"parameterNumber":3,"parameterNumberName":"V-component_of_WINDS"},"data":[0,0,0,0,0,0,0,0,0,0,0,0,0,0,0,0,0,0,0,0,0,0,0,0,0,0,0,0,0,0,0,0,0,0,0,0,0,0,0,0,0,0,0,0,0,0,0,0,0,0,0,0,0,0,0,0,0,0,-6.2872,-6.2873,0,-6.2972,-6.2974,-6.2975,-6.2906,-6.2903,-6.29,-6.2897,-6.2996,-6.3001,-6.3006,0,0,0,0,0,0,0,0,0,0,0,0,0,-6.2614,-6.2619,-6.2871,-6.2873,-6.2874,-6.2972,-6.2974,-6.2975,-6.2907,-6.2903,-6.2899,-6.2895,-6.2994,-6.3,-6.3007,0,0,0,0,0,0,0,0,0,0,0,0,0,-6.2721,-6.2621,-6.2871,-6.2852,-6.2851,-6.2972,-6.2974,-6.2975,-6.2907,-6.2903,-6.2898,-6.2894,-6.2992,-6.3,-6.3008,-6.3152,0,0,-6.3033,-6.3037,0,0,0,0,0,0,0,0,-6.2715,-6.2731,-6.2853,-6.2853,-6.2853,-6.2922,-6.2919,-6.3034,-6.2909,-6.2886,-6.2897,-6.2891,-6.2975,-6.2984,-6.3013,-6.3157,-6.3161,-6.3034,-6.3039,-6.3042,-6.3045,0,0,0,0,0,0,0,-6.2708,-6.2726,-6.2911,-6.2855,-6.2855,-6.2836,-6.2846,-6.294,-6.2955,-6.2887,-6.2883,-6.2896,-6.2973,-6.3005,-6.3015,-6.3162,-6.3034,-6.3041,-6.3046,-6.3049,-6.3427,-6.3432,0,0,0,0,0,0,-6.2703,-6.272,-6.2908,-6.2914,-6.2771,-6.2845,-6.2856,-6.2904,-6.2954,-6.2957,-6.29,-6.2892,-6.2993,-6.3005,-6.3018,-6.3189,-6.3042,-6.305,-6.3055,-6.3422,-6.3428,-6.3434,0,0,0,0,0,0,-6.2698,-6.272,-6.2904,-6.2816,-6.2838,-6.2854,-6.2909,-6.2909,-6.294,-6.2963,-6.2965,-6.293,-6.299,-6.3006,-6.3119,-6.3191,-6.3054,-6.3061,-6.3416,-6.3424,-6.3431,-6.3533,0,0,0,0,0,0,-6.2691,-6.2719,-6.2775,-6.2818,-6.2843,-6.3006,-6.2913,-6.2914,-6.2955,-6.2947,-6.2992,-6.2995,-6.2988,-6.3107,-6.3127,-6.32,-6.3068,-6.341,-6.342,-6.3429,-6.3523,-6.3543,-6.356,0,0,0,0,0,-6.2682,-6.2799,-6.2779,-6.2802,-6.2914,-6.301,-6.3024,-6.3015,-6.2962,-6.3017,-6.3032,-6.2993,-6.318,-6.3119,-6.3141,-6.3218,-6.3405,-6.3417,-6.3428,-6.3515,-6.3539,-6.356,0,0,0,0,0,0,-6.2763,-6.2805,-6.2782,-6.2917,-6.2961,-6.2998,-6.3068,-6.3041,-6.3099,-6.3089,-6.3073,-6.3084,-6.3202,-6.3221,-6.3152,-6.3359,-6.3284,-6.33,-6.3343,-6.3366,-6.3384,-6.3377,-6.3075,0,0,0,0,0,-6.2797,-6.2873,-6.2904,-6.3021,-6.3044,-6.3053,-6.3094,-6.3083,-6.3127,-6.3144,-6.3167,-6.3209,-6.3277,-6.3323,-6.3387,-6.3525,-6.3533,-6.3589,-6.3607,-6.3622,-6.3637,-6.371,-6.3735,-6.3471,-6.3471,-6.3471,0,0,-6.2868,-6.29,-6.2949,-6.3038,-6.307,-6.3148,-6.3068,-6.3154,-6.321,-6.3157,-6.3265,-6.3283,-6.3329,-6.3455,-6.3512,-6.3475,-6.3711,-6.3637,-6.3649,-6.3655,-6.3724,-6.3749,-6.3771,-6.3479,-6.3478,-6.3476,0,0,-6.3036,-6.3069,-6.3169,-6.3203,-6.3253,-6.3258,-6.3282,-6.3324,-6.3334,-6.3442,-6.3403,-6.3469,-6.3587,-6.3622,-6.3655,-6.3834,-6.3801,-6.3855,-6.3952,-6.4024,-6.4044,-6.4063,-6.4126,-6.4149,-6.3869,-6.387,-6.387,0,-6.3117,-6.3234,-6.3223,-6.3311,-6.3351,-6.3307,-6.3407,-6.344,-6.3508,-6.3536,-6.3494,-6.364,-6.3668,-6.3801,-6.3845,-6.3874,-6.3899,-6.385,-6.4043,-6.4061,-6.4078,-6.4138,-6.4162,-6.3876,-6.3875,-6.3875,-6.3874,0,-6.333,-6.3411,-6.3486,-6.3554,-6.3602,-6.3696,-6.3697,-6.3747,-6.3731,-6.374,-6.385,-6.3882,-6.3951,-6.3982,-6.3967,-6.4113,-6.4088,-6.4045,-6.3969,-6.4109,-6.4165,-6.4188,-6.3885,-6.3883,-6.3881,-6.3879,0,0,-6.3553,-6.3614,-6.3642,-6.3672,-6.3723,-6.3785,-6.3876,-6.3945,-6.3987,-6.4035,-6.4109,-6.421,-6.417,-6.4207,-6.4196,-6.4259,-6.4398,-6.4207,-6.4208,-6.4241,-6.4558,-6.459,-6.4617,-6.4376,-6.438,-6.4384,-6.4554,0,-6.3724,-6.3884,-6.3876,-6.4026,-6.4099,-6.4058,-6.4137,-6.4176,-6.4186,-6.4249,-6.4259,-6.433,-6.4273,-6.4295,-6.4355,-6.4368,-6.4461,-6.4356,-6.4443,-6.4447,-6.4433,-6.4647,-6.4681,-6.4841,-6.4576,-6.458,-6.4582,0,-6.3945,-6.4001,-6.4159,-6.4198,-6.4229,-6.43,-6.4362,-6.4423,-6.4466,-6.4468,-6.451,-6.4488,-6.4577,-6.45,-6.4622,-6.455,-6.4585,-6.4597,-6.4602,-6.461,-6.4523,-6.4659,-6.4892,-6.4915,-6.4617,-6.4614,-6.4612,0,-6.4091,-6.4206,-6.4315,-6.4342,-6.4391,-6.4442,-6.4464,-6.4503,-6.4544,-6.4598,-6.4624,-6.4687,-6.4721,-6.4769,-6.4764,-6.4708,-6.4887,-6.4809,-6.4891,-6.4891,-6.493,-6.4928,-6.5171,-6.4954,-6.4954,-6.4953,-6.4953,0,-6.4282,-6.4379,-6.4381,-6.4448,-6.4555,-6.4544,-6.465,-6.4667,-6.4701,-6.4769,-6.4736,-6.48,-6.4789,-6.4853,-6.4849,-6.495,-6.4965,-6.4969,-6.4967,-6.4972,-6.4971,-6.4994,-6.4983,-6.496,-6.4958,-6.4957,-6.4956,0,-6.4463,-6.4469,-6.4584,-6.4622,-6.4633,-6.471,-6.4741,-6.4803,-6.481,-6.4897,-6.4916,-6.4927,-6.5,-6.4999,-6.5082,-6.5079,-6.5202,-6.5188,-6.5189,-6.5186,-6.5267,-6.5259,-6.5533,-6.5568,-6.5329,-6.5331,-6.5333,0,-6.4585,-6.4659,-6.4704,-6.4748,-6.4774,-6.4845,-6.4888,-6.4879,-6.4924,-6.4978,-6.5033,-6.5103,-6.5159,-6.5277,-6.5291,-6.5353,-6.5339,-6.5431,-6.5348,-6.5351,-6.534,-6.5335,-6.5342,-6.5447,-6.5449,-6.5452,-6.5453,0,-6.48,-6.4799,-6.4862,-6.4926,-6.4978,-6.5028,-6.5074,-6.5111,-6.5107,-6.5159,-6.5234,-6.5277,-6.5361,-6.5431,-6.5491,-6.5511,-6.5482,-6.5479,-6.5501,-6.5507,-6.5505,-6.5506,-6.5232,-6.5473,-6.5471,-6.547,-6.5469,-6.5468,-6.4955,-6.5018,-6.506,-6.5131,-6.5165,-6.5208,-6.5268,-6.5283,-6.5346,-6.5415,-6.5405,-6.5489,-6.5527,-6.5605,-6.5631,-6.5695,-6.5662,-6.5695,-6.5703,-6.5711,-6.5719,-6.5495,-6.5706,-6.5705,-6.5705,-6.5704,-6.5704,0,-6.5167,-6.5192,-6.5257,-6.5323,-6.5379,-6.5347,-6.5395,-6.5443,-6.5518,-6.5557,-6.5613,-6.5698,-6.5764,-6.5784,-6.5847,-6.5894,-6.5882,-6.5911,-6.5908,-6.5913,-6.5745,-6.5719,-6.592,-6.592,-6.592,-6.592,-6.592,-6.592,-6.5284,-6.539,-6.5393,-6.5514,-6.5538,-6.562,-6.5651,-6.569,-6.5721,-6.5818,-6.5874,-6.5886,-6.5917,-6.5983,-6.6042,-6.6046,-6.607,-6.6105,-6.6103,-6.5946,-6.5925,-6.5904,-6.588,-6.6111,-6.6111,-6.6265,-6.6267,-6.6268]}]]